Showing default

ICEYE-X54, 64570

Orbit data source: Space-Track

ICEYE-X54, 64570 is a payload satellite owned by ICEYE (FI) in SSO that was launched on Mon, 23 Jun 2025 UTC via an FALCON 9 launch vehicle from the Air Force Western Test Range (AFWTR). Payload-class satellites include a variety of spacecraft equipped with specific instruments for various scientific and technological missions. These include communications satellites like Starlink; space stations such as the ISS; scientific satellites like the Hubble; Earth observation satellites from companies like Planet Labs, Umbra, and HawkEye 360; GPS; miniature CubeSats for education and research; and military/defense satellites.

Loading next visibility...
Identifier
64570, 2025-135AU
Orbit
SSO
Country
Flag of FIFI / FIN
Related business
Manufacturer
ICEYE
Mission
Operational Commercial Radar Imaging
Bus & Motor
ICEYE, Unknown motor
Mass
80 kg wet, 80 kg dry
Launch date (UTC)
2025-06-23 (6 months ago)
Launch vehicle
FALCON 9
Launch site
Air Force Western Test Range (AFWTR)
Object type
Payload
Rocket body
Debris
Shape & HBR
Box + 1 Pan, 0.8 m
Radar Cross Section
0.776 m², Medium (>0.1 m² and < 1m²)

Expand to show TLE details & history
Last TLE update: 12 hours ago

TLE from 12 hours ago
0 ICEYE-X54
1 64570U 25135AU  25340.91831015  .00007087  00000-0  68793-3 0  9998
2 64570  97.7593  92.6441 0001605 202.8670 157.2478 14.92938804 25196
Epoch: 2025-12-06T22:02Z
TLE epoch observation values (Epoch: 2025-12-06T22:02:21.996Z)
Latitude
-0.00007°
Longitude
46.1133°
Altitude
592.853 km
Speed
7.563 km/s
True Right ascension
06h 10m 34s
True Declination
0° 00' 00"
Sunlit
Object was in full shadow at epoch
Visualization orbit readout
Latitude
Unknown
Longitude
Unknown
Altitude
Unknown
Speed
Unknown
Apparent Right ascension
Unknown
Apparent Declination
Unknown
Sunlit
N/A
Visualization observer readout
Local Sidereal Time
08:11:11
Azimuth
Unknown
Elevation
Unknown
Doppler factor
Unknown
Orbital elements
Apogee altitude
586.913 km
Perigee altitude
584.677 km
Semi-major axis
6,963.932 km
Eccentricity
0.00016
Inclination
97.7593°
RAAN
92.6441°
Arg. of periapsis
202.867°
True anomaly
157.25491°
Mean anomaly
157.2478°
Eccentric anomaly
157.25136°
Mean motion
3.73475 °/min
Orbital period
96.39 mins
BSTAR
0.00068793
Loading maneuver chart data...
Computing Atmospheric mass density...
Loading historical data...
Loading historical data...
Loading historical data...
Loading historical data...
Loading historical data...
Loading historical data...
Loading historical data...

Documentation

Showing up to 5 results
|